Index of /20260430/WXO-DD/model_gdps/15km/12/114
Name Last modified Size Description
Parent Directory -
20260430T12Z_MSC_GDPS_AbsoluteVorticity_IsbL-0200_LatLon0.15_PT114H.grib2 2026-04-30 16:24 1.4M
20260430T12Z_MSC_GDPS_AbsoluteVorticity_IsbL-0250_LatLon0.15_PT114H.grib2 2026-04-30 16:24 1.3M
20260430T12Z_MSC_GDPS_AbsoluteVorticity_IsbL-0500_LatLon0.15_PT114H.grib2 2026-04-30 16:24 1.4M
20260430T12Z_MSC_GDPS_AbsoluteVorticity_IsbL-0700_LatLon0.15_PT114H.grib2 2026-04-30 16:24 1.3M
20260430T12Z_MSC_GDPS_AbsoluteVorticity_IsbL-0850_LatLon0.15_PT114H.grib2 2026-04-30 16:24 1.6M
20260430T12Z_MSC_GDPS_AirTemp-Max_AGL-2m_LatLon0.15_PT114H.grib2 2026-04-30 16:24 741K
20260430T12Z_MSC_GDPS_AirTemp-Min_AGL-2m_LatLon0.15_PT114H.grib2 2026-04-30 16:24 784K
20260430T12Z_MSC_GDPS_AirTemp_AGL-120m_LatLon0.15_PT114H.grib2 2026-04-30 16:24 901K
20260430T12Z_MSC_GDPS_AirTemp_AGL-2m_LatLon0.15_PT114H.grib2 2026-04-30 16:24 1.0M
20260430T12Z_MSC_GDPS_AirTemp_AGL-40m_LatLon0.15_PT114H.grib2 2026-04-30 16:24 802K
20260430T12Z_MSC_GDPS_AirTemp_AGL-80m_LatLon0.15_PT114H.grib2 2026-04-30 16:24 908K
20260430T12Z_MSC_GDPS_AirTemp_IsbL-0001_LatLon0.15_PT114H.grib2 2026-04-30 16:24 716K
20260430T12Z_MSC_GDPS_AirTemp_IsbL-0005_LatLon0.15_PT114H.grib2 2026-04-30 16:24 684K
20260430T12Z_MSC_GDPS_AirTemp_IsbL-0010_LatLon0.15_PT114H.grib2 2026-04-30 16:24 690K
20260430T12Z_MSC_GDPS_AirTemp_IsbL-0020_LatLon0.15_PT114H.grib2 2026-04-30 16:24 789K
20260430T12Z_MSC_GDPS_AirTemp_IsbL-0030_LatLon0.15_PT114H.grib2 2026-04-30 16:24 758K
20260430T12Z_MSC_GDPS_AirTemp_IsbL-0050_LatLon0.15_PT114H.grib2 2026-04-30 16:24 813K
20260430T12Z_MSC_GDPS_AirTemp_IsbL-0100_LatLon0.15_PT114H.grib2 2026-04-30 16:24 967K
20260430T12Z_MSC_GDPS_AirTemp_IsbL-0150_LatLon0.15_PT114H.grib2 2026-04-30 16:24 963K
20260430T12Z_MSC_GDPS_AirTemp_IsbL-0175_LatLon0.15_PT114H.grib2 2026-04-30 16:24 951K
20260430T12Z_MSC_GDPS_AirTemp_IsbL-0200_LatLon0.15_PT114H.grib2 2026-04-30 16:24 1.0M
20260430T12Z_MSC_GDPS_AirTemp_IsbL-0225_LatLon0.15_PT114H.grib2 2026-04-30 16:24 965K
20260430T12Z_MSC_GDPS_AirTemp_IsbL-0250_LatLon0.15_PT114H.grib2 2026-04-30 16:24 1.0M
20260430T12Z_MSC_GDPS_AirTemp_IsbL-0275_LatLon0.15_PT114H.grib2 2026-04-30 16:24 1.0M
20260430T12Z_MSC_GDPS_AirTemp_IsbL-0300_LatLon0.15_PT114H.grib2 2026-04-30 16:24 1.0M
20260430T12Z_MSC_GDPS_AirTemp_IsbL-0350_LatLon0.15_PT114H.grib2 2026-04-30 16:24 921K
20260430T12Z_MSC_GDPS_AirTemp_IsbL-0400_LatLon0.15_PT114H.grib2 2026-04-30 16:24 935K
20260430T12Z_MSC_GDPS_AirTemp_IsbL-0450_LatLon0.15_PT114H.grib2 2026-04-30 16:24 957K
20260430T12Z_MSC_GDPS_AirTemp_IsbL-0500_LatLon0.15_PT114H.grib2 2026-04-30 16:24 1.0M
20260430T12Z_MSC_GDPS_AirTemp_IsbL-0550_LatLon0.15_PT114H.grib2 2026-04-30 16:24 792K
20260430T12Z_MSC_GDPS_AirTemp_IsbL-0600_LatLon0.15_PT114H.grib2 2026-04-30 16:24 881K
20260430T12Z_MSC_GDPS_AirTemp_IsbL-0650_LatLon0.15_PT114H.grib2 2026-04-30 16:24 908K
20260430T12Z_MSC_GDPS_AirTemp_IsbL-0700_LatLon0.15_PT114H.grib2 2026-04-30 16:24 946K
20260430T12Z_MSC_GDPS_AirTemp_IsbL-0750_LatLon0.15_PT114H.grib2 2026-04-30 16:24 1.0M
20260430T12Z_MSC_GDPS_AirTemp_IsbL-0800_LatLon0.15_PT114H.grib2 2026-04-30 16:24 1.1M
20260430T12Z_MSC_GDPS_AirTemp_IsbL-0850_LatLon0.15_PT114H.grib2 2026-04-30 16:24 1.1M
20260430T12Z_MSC_GDPS_AirTemp_IsbL-0875_LatLon0.15_PT114H.grib2 2026-04-30 16:24 1.2M
20260430T12Z_MSC_GDPS_AirTemp_IsbL-0900_LatLon0.15_PT114H.grib2 2026-04-30 16:24 1.2M
20260430T12Z_MSC_GDPS_AirTemp_IsbL-0925_LatLon0.15_PT114H.grib2 2026-04-30 16:24 1.1M
20260430T12Z_MSC_GDPS_AirTemp_IsbL-0950_LatLon0.15_PT114H.grib2 2026-04-30 16:24 1.1M
20260430T12Z_MSC_GDPS_AirTemp_IsbL-0970_LatLon0.15_PT114H.grib2 2026-04-30 16:24 1.1M
20260430T12Z_MSC_GDPS_AirTemp_IsbL-0985_LatLon0.15_PT114H.grib2 2026-04-30 16:24 1.1M
20260430T12Z_MSC_GDPS_AirTemp_IsbL-1000_LatLon0.15_PT114H.grib2 2026-04-30 16:24 1.1M
20260430T12Z_MSC_GDPS_AirTemp_IsbL-1015_LatLon0.15_PT114H.grib2 2026-04-30 16:24 1.1M
20260430T12Z_MSC_GDPS_Albedo_Sfc_LatLon0.15_PT114H.grib2 2026-04-30 16:24 244K
20260430T12Z_MSC_GDPS_CAPE_Sfc_LatLon0.15_PT114H.grib2 2026-04-30 16:24 4.1M
20260430T12Z_MSC_GDPS_CIN_Sfc_LatLon0.15_PT114H.grib2 2026-04-30 16:24 2.9M
20260430T12Z_MSC_GDPS_CloudWater_EAtm_LatLon0.15_PT114H.grib2 2026-04-30 16:24 530K
20260430T12Z_MSC_GDPS_ConvectivePrecip-Accum_Sfc_LatLon0.15_PT114H.grib2 2026-04-30 16:24 3.4M
20260430T12Z_MSC_GDPS_DewPointDepression_AGL-2m_LatLon0.15_PT114H.grib2 2026-04-30 16:24 601K
20260430T12Z_MSC_GDPS_DewPointDepression_IsbL-0010_LatLon0.15_PT114H.grib2 2026-04-30 16:24 71K
20260430T12Z_MSC_GDPS_DewPointDepression_IsbL-0020_LatLon0.15_PT114H.grib2 2026-04-30 16:24 75K
20260430T12Z_MSC_GDPS_DewPointDepression_IsbL-0030_LatLon0.15_PT114H.grib2 2026-04-30 16:24 86K
20260430T12Z_MSC_GDPS_DewPointDepression_IsbL-0050_LatLon0.15_PT114H.grib2 2026-04-30 16:24 383K
20260430T12Z_MSC_GDPS_DewPointDepression_IsbL-0100_LatLon0.15_PT114H.grib2 2026-04-30 16:24 399K
20260430T12Z_MSC_GDPS_DewPointDepression_IsbL-0150_LatLon0.15_PT114H.grib2 2026-04-30 16:24 474K
20260430T12Z_MSC_GDPS_DewPointDepression_IsbL-0175_LatLon0.15_PT114H.grib2 2026-04-30 16:24 578K
20260430T12Z_MSC_GDPS_DewPointDepression_IsbL-0200_LatLon0.15_PT114H.grib2 2026-04-30 16:24 675K
20260430T12Z_MSC_GDPS_DewPointDepression_IsbL-0225_LatLon0.15_PT114H.grib2 2026-04-30 16:24 759K
20260430T12Z_MSC_GDPS_DewPointDepression_IsbL-0250_LatLon0.15_PT114H.grib2 2026-04-30 16:24 850K
20260430T12Z_MSC_GDPS_DewPointDepression_IsbL-0275_LatLon0.15_PT114H.grib2 2026-04-30 16:24 870K
20260430T12Z_MSC_GDPS_DewPointDepression_IsbL-0300_LatLon0.15_PT114H.grib2 2026-04-30 16:24 914K
20260430T12Z_MSC_GDPS_DewPointDepression_IsbL-0350_LatLon0.15_PT114H.grib2 2026-04-30 16:24 951K
20260430T12Z_MSC_GDPS_DewPointDepression_IsbL-0400_LatLon0.15_PT114H.grib2 2026-04-30 16:24 1.0M
20260430T12Z_MSC_GDPS_DewPointDepression_IsbL-0450_LatLon0.15_PT114H.grib2 2026-04-30 16:24 1.0M
20260430T12Z_MSC_GDPS_DewPointDepression_IsbL-0500_LatLon0.15_PT114H.grib2 2026-04-30 16:24 1.0M
20260430T12Z_MSC_GDPS_DewPointDepression_IsbL-0550_LatLon0.15_PT114H.grib2 2026-04-30 16:24 1.0M
20260430T12Z_MSC_GDPS_DewPointDepression_IsbL-0600_LatLon0.15_PT114H.grib2 2026-04-30 16:24 1.0M
20260430T12Z_MSC_GDPS_DewPointDepression_IsbL-0650_LatLon0.15_PT114H.grib2 2026-04-30 16:24 1.0M
20260430T12Z_MSC_GDPS_DewPointDepression_IsbL-0700_LatLon0.15_PT114H.grib2 2026-04-30 16:24 1.1M
20260430T12Z_MSC_GDPS_DewPointDepression_IsbL-0750_LatLon0.15_PT114H.grib2 2026-04-30 16:24 1.1M
20260430T12Z_MSC_GDPS_DewPointDepression_IsbL-0800_LatLon0.15_PT114H.grib2 2026-04-30 16:24 1.2M
20260430T12Z_MSC_GDPS_DewPointDepression_IsbL-0850_LatLon0.15_PT114H.grib2 2026-04-30 16:24 1.2M
20260430T12Z_MSC_GDPS_DewPointDepression_IsbL-0875_LatLon0.15_PT114H.grib2 2026-04-30 16:24 1.1M
20260430T12Z_MSC_GDPS_DewPointDepression_IsbL-0900_LatLon0.15_PT114H.grib2 2026-04-30 16:24 1.0M
20260430T12Z_MSC_GDPS_DewPointDepression_IsbL-0925_LatLon0.15_PT114H.grib2 2026-04-30 16:24 1.0M
20260430T12Z_MSC_GDPS_DewPointDepression_IsbL-0950_LatLon0.15_PT114H.grib2 2026-04-30 16:24 1.0M
20260430T12Z_MSC_GDPS_DewPointDepression_IsbL-0970_LatLon0.15_PT114H.grib2 2026-04-30 16:24 1.0M
20260430T12Z_MSC_GDPS_DewPointDepression_IsbL-0985_LatLon0.15_PT114H.grib2 2026-04-30 16:24 1.0M
20260430T12Z_MSC_GDPS_DewPointDepression_IsbL-1000_LatLon0.15_PT114H.grib2 2026-04-30 16:24 972K
20260430T12Z_MSC_GDPS_DewPointDepression_IsbL-1015_LatLon0.15_PT114H.grib2 2026-04-30 16:24 916K
20260430T12Z_MSC_GDPS_DewPoint_AGL-2m_LatLon0.15_PT114H.grib2 2026-04-30 16:24 605K
20260430T12Z_MSC_GDPS_DownwardLongwaveRadiationFlux-Accum_Sfc_LatLon0.15_PT114H.grib2 2026-04-30 16:24 793K
20260430T12Z_MSC_GDPS_DownwardShortwaveRadiationFlux-Accum_NTAtm_LatLon0.15_PT114H.grib2 2026-04-30 16:24 284K
20260430T12Z_MSC_GDPS_DownwardShortwaveRadiationFlux-Accum_Sfc_LatLon0.15_PT114H.grib2 2026-04-30 16:24 1.0M
20260430T12Z_MSC_GDPS_FreezingRain-Accum12h_Sfc_LatLon0.15_PT114H.grib2 2026-04-30 16:24 113K
20260430T12Z_MSC_GDPS_FreezingRain-Accum1h_Sfc_LatLon0.15_PT114H.grib2 2026-04-30 16:24 41K
20260430T12Z_MSC_GDPS_FreezingRain-Accum24h_Sfc_LatLon0.15_PT114H.grib2 2026-04-30 16:24 167K
20260430T12Z_MSC_GDPS_FreezingRain-Accum3h_Sfc_LatLon0.15_PT114H.grib2 2026-04-30 16:24 51K
20260430T12Z_MSC_GDPS_FreezingRain-Accum6h_Sfc_LatLon0.15_PT114H.grib2 2026-04-30 16:24 68K
20260430T12Z_MSC_GDPS_FreezingRain-Accum_Sfc_LatLon0.15_PT114H.grib2 2026-04-30 16:24 399K
20260430T12Z_MSC_GDPS_GeopotentialHeight_IsbL-0001_LatLon0.15_PT114H.grib2 2026-04-30 16:24 435K
20260430T12Z_MSC_GDPS_GeopotentialHeight_IsbL-0005_LatLon0.15_PT114H.grib2 2026-04-30 16:24 481K
20260430T12Z_MSC_GDPS_GeopotentialHeight_IsbL-0010_LatLon0.15_PT114H.grib2 2026-04-30 16:24 473K
20260430T12Z_MSC_GDPS_GeopotentialHeight_IsbL-0020_LatLon0.15_PT114H.grib2 2026-04-30 16:24 411K
20260430T12Z_MSC_GDPS_GeopotentialHeight_IsbL-0030_LatLon0.15_PT114H.grib2 2026-04-30 16:24 568K
20260430T12Z_MSC_GDPS_GeopotentialHeight_IsbL-0050_LatLon0.15_PT114H.grib2 2026-04-30 16:24 569K
20260430T12Z_MSC_GDPS_GeopotentialHeight_IsbL-0100_LatLon0.15_PT114H.grib2 2026-04-30 16:24 606K
20260430T12Z_MSC_GDPS_GeopotentialHeight_IsbL-0150_LatLon0.15_PT114H.grib2 2026-04-30 16:24 624K
20260430T12Z_MSC_GDPS_GeopotentialHeight_IsbL-0175_LatLon0.15_PT114H.grib2 2026-04-30 16:24 628K
20260430T12Z_MSC_GDPS_GeopotentialHeight_IsbL-0200_LatLon0.15_PT114H.grib2 2026-04-30 16:24 632K
20260430T12Z_MSC_GDPS_GeopotentialHeight_IsbL-0225_LatLon0.15_PT114H.grib2 2026-04-30 16:24 636K
20260430T12Z_MSC_GDPS_GeopotentialHeight_IsbL-0250_LatLon0.15_PT114H.grib2 2026-04-30 16:24 640K
20260430T12Z_MSC_GDPS_GeopotentialHeight_IsbL-0275_LatLon0.15_PT114H.grib2 2026-04-30 16:24 639K
20260430T12Z_MSC_GDPS_GeopotentialHeight_IsbL-0300_LatLon0.15_PT114H.grib2 2026-04-30 16:24 638K
20260430T12Z_MSC_GDPS_GeopotentialHeight_IsbL-0350_LatLon0.15_PT114H.grib2 2026-04-30 16:24 628K
20260430T12Z_MSC_GDPS_GeopotentialHeight_IsbL-0400_LatLon0.15_PT114H.grib2 2026-04-30 16:24 619K
20260430T12Z_MSC_GDPS_GeopotentialHeight_IsbL-0450_LatLon0.15_PT114H.grib2 2026-04-30 16:24 607K
20260430T12Z_MSC_GDPS_GeopotentialHeight_IsbL-0500_LatLon0.15_PT114H.grib2 2026-04-30 16:24 530K
20260430T12Z_MSC_GDPS_GeopotentialHeight_IsbL-0550_LatLon0.15_PT114H.grib2 2026-04-30 16:24 524K
20260430T12Z_MSC_GDPS_GeopotentialHeight_IsbL-0600_LatLon0.15_PT114H.grib2 2026-04-30 16:24 689K
20260430T12Z_MSC_GDPS_GeopotentialHeight_IsbL-0650_LatLon0.15_PT114H.grib2 2026-04-30 16:24 686K
20260430T12Z_MSC_GDPS_GeopotentialHeight_IsbL-0700_LatLon0.15_PT114H.grib2 2026-04-30 16:24 687K
20260430T12Z_MSC_GDPS_GeopotentialHeight_IsbL-0750_LatLon0.15_PT114H.grib2 2026-04-30 16:24 691K
20260430T12Z_MSC_GDPS_GeopotentialHeight_IsbL-0800_LatLon0.15_PT114H.grib2 2026-04-30 16:24 702K
20260430T12Z_MSC_GDPS_GeopotentialHeight_IsbL-0850_LatLon0.15_PT114H.grib2 2026-04-30 16:24 710K
20260430T12Z_MSC_GDPS_GeopotentialHeight_IsbL-0875_LatLon0.15_PT114H.grib2 2026-04-30 16:24 716K
20260430T12Z_MSC_GDPS_GeopotentialHeight_IsbL-0900_LatLon0.15_PT114H.grib2 2026-04-30 16:24 727K
20260430T12Z_MSC_GDPS_GeopotentialHeight_IsbL-0925_LatLon0.15_PT114H.grib2 2026-04-30 16:24 730K
20260430T12Z_MSC_GDPS_GeopotentialHeight_IsbL-0950_LatLon0.15_PT114H.grib2 2026-04-30 16:24 738K
20260430T12Z_MSC_GDPS_GeopotentialHeight_IsbL-0970_LatLon0.15_PT114H.grib2 2026-04-30 16:24 751K
20260430T12Z_MSC_GDPS_GeopotentialHeight_IsbL-0985_LatLon0.15_PT114H.grib2 2026-04-30 16:24 765K
20260430T12Z_MSC_GDPS_GeopotentialHeight_IsbL-1000_LatLon0.15_PT114H.grib2 2026-04-30 16:24 785K
20260430T12Z_MSC_GDPS_GeopotentialHeight_IsbL-1015_LatLon0.15_PT114H.grib2 2026-04-30 16:24 616K
20260430T12Z_MSC_GDPS_Humidex_Sfc_LatLon0.15_PT114H.grib2 2026-04-30 16:24 5.3M
20260430T12Z_MSC_GDPS_IcePellets-Accum12h_Sfc_LatLon0.15_PT114H.grib2 2026-04-30 16:24 30K
20260430T12Z_MSC_GDPS_IcePellets-Accum1h_Sfc_LatLon0.15_PT114H.grib2 2026-04-30 16:24 15K
20260430T12Z_MSC_GDPS_IcePellets-Accum24h_Sfc_LatLon0.15_PT114H.grib2 2026-04-30 16:24 40K
20260430T12Z_MSC_GDPS_IcePellets-Accum3h_Sfc_LatLon0.15_PT114H.grib2 2026-04-30 16:24 16K
20260430T12Z_MSC_GDPS_IcePellets-Accum6h_Sfc_LatLon0.15_PT114H.grib2 2026-04-30 16:24 23K
20260430T12Z_MSC_GDPS_IcePellets-Accum_Sfc_LatLon0.15_PT114H.grib2 2026-04-30 16:24 106K
20260430T12Z_MSC_GDPS_KIndex_Sfc_LatLon0.15_PT114H.grib2 2026-04-30 16:24 6.5M
20260430T12Z_MSC_GDPS_LatentHeatNetFlux_Sfc_LatLon0.15_PT114H.grib2 2026-04-30 16:24 547K
20260430T12Z_MSC_GDPS_LiftedIndex-MU-VT_IsbL-0500_LatLon0.15_PT114H.grib2 2026-04-30 16:24 5.4M
20260430T12Z_MSC_GDPS_NetLongwaveRadiationFlux-Accum_Sfc_LatLon0.15_PT114H.grib2 2026-04-30 16:24 1.0M
20260430T12Z_MSC_GDPS_NetShortwaveRadiationFlux-Accum_Sfc_LatLon0.15_PT114H.grib2 2026-04-30 16:24 1.0M
20260430T12Z_MSC_GDPS_O3MixingRatio_Sfc_LatLon0.15_PT114H.grib2 2026-04-30 16:45 1.9M
20260430T12Z_MSC_GDPS_O3_EAtm_LatLon0.15_PT114H.grib2 2026-04-30 16:45 2.4M
20260430T12Z_MSC_GDPS_PlanetaryBoundaryLayerHeight_Sfc_LatLon0.15_PT114H.grib2 2026-04-30 16:24 2.5M
20260430T12Z_MSC_GDPS_Precip-Accum12h_Sfc_LatLon0.15_PT114H.grib2 2026-04-30 16:24 4.0M
20260430T12Z_MSC_GDPS_Precip-Accum1h_Sfc_LatLon0.15_PT114H.grib2 2026-04-30 16:24 3.2M
20260430T12Z_MSC_GDPS_Precip-Accum24h_Sfc_LatLon0.15_PT114H.grib2 2026-04-30 16:24 4.5M
20260430T12Z_MSC_GDPS_Precip-Accum3h_Sfc_LatLon0.15_PT114H.grib2 2026-04-30 16:24 3.5M
20260430T12Z_MSC_GDPS_Precip-Accum6h_Sfc_LatLon0.15_PT114H.grib2 2026-04-30 16:24 3.8M
20260430T12Z_MSC_GDPS_Precip-Accum_Sfc_LatLon0.15_PT114H.grib2 2026-04-30 16:24 5.4M
20260430T12Z_MSC_GDPS_PrecipRate_Sfc_LatLon0.15_PT114H.grib2 2026-04-30 16:24 3.1M
20260430T12Z_MSC_GDPS_PrecipType-Instant_Sfc_LatLon0.15_PT114H.grib2 2026-04-30 16:24 1.6M
20260430T12Z_MSC_GDPS_Pressure_MSL_LatLon0.15_PT114H.grib2 2026-04-30 16:24 816K
20260430T12Z_MSC_GDPS_Pressure_PVU-1.5_LatLon0.15_PT114H.grib2 2026-04-30 16:24 5.8M
20260430T12Z_MSC_GDPS_Pressure_PVU-1_LatLon0.15_PT114H.grib2 2026-04-30 16:24 6.0M
20260430T12Z_MSC_GDPS_Pressure_PVU-2_LatLon0.15_PT114H.grib2 2026-04-30 16:24 5.6M
20260430T12Z_MSC_GDPS_Pressure_Sfc_LatLon0.15_PT114H.grib2 2026-04-30 16:24 1.1M
20260430T12Z_MSC_GDPS_RadiativeTemp_Sfc_LatLon0.15_PT114H.grib2 2026-04-30 16:24 495K
20260430T12Z_MSC_GDPS_Rain-Accum12h_Sfc_LatLon0.15_PT114H.grib2 2026-04-30 16:24 2.7M
20260430T12Z_MSC_GDPS_Rain-Accum1h_Sfc_LatLon0.15_PT114H.grib2 2026-04-30 16:24 1.6M
20260430T12Z_MSC_GDPS_Rain-Accum24h_Sfc_LatLon0.15_PT114H.grib2 2026-04-30 16:24 3.2M
20260430T12Z_MSC_GDPS_Rain-Accum3h_Sfc_LatLon0.15_PT114H.grib2 2026-04-30 16:24 1.8M
20260430T12Z_MSC_GDPS_Rain-Accum6h_Sfc_LatLon0.15_PT114H.grib2 2026-04-30 16:24 2.4M
20260430T12Z_MSC_GDPS_Rain-Accum_Sfc_LatLon0.15_PT114H.grib2 2026-04-30 16:24 4.2M
20260430T12Z_MSC_GDPS_RelativeHumidity_AGL-2m_LatLon0.15_PT114H.grib2 2026-04-30 16:24 1.1M
20260430T12Z_MSC_GDPS_RelativeHumidity_IsbL-0010_LatLon0.15_PT114H.grib2 2026-04-30 16:24 130K
20260430T12Z_MSC_GDPS_RelativeHumidity_IsbL-0020_LatLon0.15_PT114H.grib2 2026-04-30 16:24 163K
20260430T12Z_MSC_GDPS_RelativeHumidity_IsbL-0030_LatLon0.15_PT114H.grib2 2026-04-30 16:24 188K
20260430T12Z_MSC_GDPS_RelativeHumidity_IsbL-0050_LatLon0.15_PT114H.grib2 2026-04-30 16:24 338K
20260430T12Z_MSC_GDPS_RelativeHumidity_IsbL-0100_LatLon0.15_PT114H.grib2 2026-04-30 16:24 507K
20260430T12Z_MSC_GDPS_RelativeHumidity_IsbL-0150_LatLon0.15_PT114H.grib2 2026-04-30 16:24 662K
20260430T12Z_MSC_GDPS_RelativeHumidity_IsbL-0175_LatLon0.15_PT114H.grib2 2026-04-30 16:24 788K
20260430T12Z_MSC_GDPS_RelativeHumidity_IsbL-0200_LatLon0.15_PT114H.grib2 2026-04-30 16:24 697K
20260430T12Z_MSC_GDPS_RelativeHumidity_IsbL-0225_LatLon0.15_PT114H.grib2 2026-04-30 16:24 775K
20260430T12Z_MSC_GDPS_RelativeHumidity_IsbL-0250_LatLon0.15_PT114H.grib2 2026-04-30 16:24 850K
20260430T12Z_MSC_GDPS_RelativeHumidity_IsbL-0275_LatLon0.15_PT114H.grib2 2026-04-30 16:24 872K
20260430T12Z_MSC_GDPS_RelativeHumidity_IsbL-0300_LatLon0.15_PT114H.grib2 2026-04-30 16:24 916K
20260430T12Z_MSC_GDPS_RelativeHumidity_IsbL-0350_LatLon0.15_PT114H.grib2 2026-04-30 16:24 942K
20260430T12Z_MSC_GDPS_RelativeHumidity_IsbL-0400_LatLon0.15_PT114H.grib2 2026-04-30 16:24 965K
20260430T12Z_MSC_GDPS_RelativeHumidity_IsbL-0450_LatLon0.15_PT114H.grib2 2026-04-30 16:24 1.0M
20260430T12Z_MSC_GDPS_RelativeHumidity_IsbL-0500_LatLon0.15_PT114H.grib2 2026-04-30 16:24 1.0M
20260430T12Z_MSC_GDPS_RelativeHumidity_IsbL-0550_LatLon0.15_PT114H.grib2 2026-04-30 16:24 1.0M
20260430T12Z_MSC_GDPS_RelativeHumidity_IsbL-0600_LatLon0.15_PT114H.grib2 2026-04-30 16:24 1.1M
20260430T12Z_MSC_GDPS_RelativeHumidity_IsbL-0650_LatLon0.15_PT114H.grib2 2026-04-30 16:24 1.1M
20260430T12Z_MSC_GDPS_RelativeHumidity_IsbL-0700_LatLon0.15_PT114H.grib2 2026-04-30 16:24 1.1M
20260430T12Z_MSC_GDPS_RelativeHumidity_IsbL-0750_LatLon0.15_PT114H.grib2 2026-04-30 16:24 1.2M
20260430T12Z_MSC_GDPS_RelativeHumidity_IsbL-0800_LatLon0.15_PT114H.grib2 2026-04-30 16:24 1.2M
20260430T12Z_MSC_GDPS_RelativeHumidity_IsbL-0850_LatLon0.15_PT114H.grib2 2026-04-30 16:24 1.3M
20260430T12Z_MSC_GDPS_RelativeHumidity_IsbL-0875_LatLon0.15_PT114H.grib2 2026-04-30 16:24 1.3M
20260430T12Z_MSC_GDPS_RelativeHumidity_IsbL-0900_LatLon0.15_PT114H.grib2 2026-04-30 16:24 1.2M
20260430T12Z_MSC_GDPS_RelativeHumidity_IsbL-0925_LatLon0.15_PT114H.grib2 2026-04-30 16:24 1.2M
20260430T12Z_MSC_GDPS_RelativeHumidity_IsbL-0950_LatLon0.15_PT114H.grib2 2026-04-30 16:24 1.2M
20260430T12Z_MSC_GDPS_RelativeHumidity_IsbL-0970_LatLon0.15_PT114H.grib2 2026-04-30 16:24 1.2M
20260430T12Z_MSC_GDPS_RelativeHumidity_IsbL-0985_LatLon0.15_PT114H.grib2 2026-04-30 16:24 1.1M
20260430T12Z_MSC_GDPS_RelativeHumidity_IsbL-1000_LatLon0.15_PT114H.grib2 2026-04-30 16:24 1.2M
20260430T12Z_MSC_GDPS_RelativeHumidity_IsbL-1015_LatLon0.15_PT114H.grib2 2026-04-30 16:24 1.0M
20260430T12Z_MSC_GDPS_RelativeVorticity_IsbL-0200_LatLon0.15_PT114H.grib2 2026-04-30 16:24 1.4M
20260430T12Z_MSC_GDPS_RelativeVorticity_IsbL-0250_LatLon0.15_PT114H.grib2 2026-04-30 16:24 1.3M
20260430T12Z_MSC_GDPS_RelativeVorticity_IsbL-0500_LatLon0.15_PT114H.grib2 2026-04-30 16:24 1.4M
20260430T12Z_MSC_GDPS_RelativeVorticity_IsbL-0700_LatLon0.15_PT114H.grib2 2026-04-30 16:24 1.3M
20260430T12Z_MSC_GDPS_RelativeVorticity_IsbL-0850_LatLon0.15_PT114H.grib2 2026-04-30 16:24 1.6M
20260430T12Z_MSC_GDPS_Runoff-Accum_Sfc_LatLon0.15_PT114H.grib2 2026-04-30 16:24 138K
20260430T12Z_MSC_GDPS_SensibleHeatNetFlux_Sfc_LatLon0.15_PT114H.grib2 2026-04-30 16:24 661K
20260430T12Z_MSC_GDPS_ShowalterIndex_IsbL-0500_LatLon0.15_PT114H.grib2 2026-04-30 16:24 6.2M
20260430T12Z_MSC_GDPS_Snow-Accum12h_Sfc_LatLon0.15_PT114H.grib2 2026-04-30 16:24 1.4M
20260430T12Z_MSC_GDPS_Snow-Accum1h_Sfc_LatLon0.15_PT114H.grib2 2026-04-30 16:24 1.3M
20260430T12Z_MSC_GDPS_Snow-Accum24h_Sfc_LatLon0.15_PT114H.grib2 2026-04-30 16:24 1.6M
20260430T12Z_MSC_GDPS_Snow-Accum3h_Sfc_LatLon0.15_PT114H.grib2 2026-04-30 16:24 1.1M
20260430T12Z_MSC_GDPS_Snow-Accum6h_Sfc_LatLon0.15_PT114H.grib2 2026-04-30 16:24 1.4M
20260430T12Z_MSC_GDPS_Snow-Accum_Sfc_LatLon0.15_PT114H.grib2 2026-04-30 16:24 2.1M
20260430T12Z_MSC_GDPS_SnowDensity_Sfc_LatLon0.15_PT114H.grib2 2026-04-30 16:24 263K
20260430T12Z_MSC_GDPS_SnowDepth_Sfc_LatLon0.15_PT114H.grib2 2026-04-30 16:24 1.7M
20260430T12Z_MSC_GDPS_SoilTemp_DBS-0to10cm_LatLon0.15_PT114H.grib2 2026-04-30 16:24 512K
20260430T12Z_MSC_GDPS_SoilTemp_Sfc_LatLon0.15_PT114H.grib2 2026-04-30 16:24 583K
20260430T12Z_MSC_GDPS_SoilVolumetricIceContent_Sfc_LatLon0.15_PT114H.grib2 2026-04-30 16:24 193K
20260430T12Z_MSC_GDPS_SoilVolumetricWaterContent_DBS-0to10cm_LatLon0.15_PT114H.grib2 2026-04-30 16:24 591K
20260430T12Z_MSC_GDPS_SoilVolumetricWaterContent_DBS-0to1cm_LatLon0.15_PT114H.grib2 2026-04-30 16:24 652K
20260430T12Z_MSC_GDPS_SpecificHumidity_AGL-120m_LatLon0.15_PT114H.grib2 2026-04-30 16:24 1.1M
20260430T12Z_MSC_GDPS_SpecificHumidity_AGL-2m_LatLon0.15_PT114H.grib2 2026-04-30 16:24 1.2M
20260430T12Z_MSC_GDPS_SpecificHumidity_AGL-40m_LatLon0.15_PT114H.grib2 2026-04-30 16:24 1.1M
20260430T12Z_MSC_GDPS_SpecificHumidity_AGL-80m_LatLon0.15_PT114H.grib2 2026-04-30 16:24 1.1M
20260430T12Z_MSC_GDPS_SpecificHumidity_IsbL-0001_LatLon0.15_PT114H.grib2 2026-04-30 16:24 1.3M
20260430T12Z_MSC_GDPS_SpecificHumidity_IsbL-0005_LatLon0.15_PT114H.grib2 2026-04-30 16:24 1.1M
20260430T12Z_MSC_GDPS_SpecificHumidity_IsbL-0010_LatLon0.15_PT114H.grib2 2026-04-30 16:24 1.3M
20260430T12Z_MSC_GDPS_SpecificHumidity_IsbL-0020_LatLon0.15_PT114H.grib2 2026-04-30 16:24 1.3M
20260430T12Z_MSC_GDPS_SpecificHumidity_IsbL-0030_LatLon0.15_PT114H.grib2 2026-04-30 16:24 1.6M
20260430T12Z_MSC_GDPS_SpecificHumidity_IsbL-0050_LatLon0.15_PT114H.grib2 2026-04-30 16:24 1.6M
20260430T12Z_MSC_GDPS_SpecificHumidity_IsbL-0100_LatLon0.15_PT114H.grib2 2026-04-30 16:24 1.3M
20260430T12Z_MSC_GDPS_SpecificHumidity_IsbL-0150_LatLon0.15_PT114H.grib2 2026-04-30 16:24 1.3M
20260430T12Z_MSC_GDPS_SpecificHumidity_IsbL-0175_LatLon0.15_PT114H.grib2 2026-04-30 16:24 1.3M
20260430T12Z_MSC_GDPS_SpecificHumidity_IsbL-0200_LatLon0.15_PT114H.grib2 2026-04-30 16:24 1.3M
20260430T12Z_MSC_GDPS_SpecificHumidity_IsbL-0225_LatLon0.15_PT114H.grib2 2026-04-30 16:24 1.3M
20260430T12Z_MSC_GDPS_SpecificHumidity_IsbL-0250_LatLon0.15_PT114H.grib2 2026-04-30 16:24 1.4M
20260430T12Z_MSC_GDPS_SpecificHumidity_IsbL-0275_LatLon0.15_PT114H.grib2 2026-04-30 16:24 1.3M
20260430T12Z_MSC_GDPS_SpecificHumidity_IsbL-0300_LatLon0.15_PT114H.grib2 2026-04-30 16:24 1.2M
20260430T12Z_MSC_GDPS_SpecificHumidity_IsbL-0350_LatLon0.15_PT114H.grib2 2026-04-30 16:24 1.2M
20260430T12Z_MSC_GDPS_SpecificHumidity_IsbL-0400_LatLon0.15_PT114H.grib2 2026-04-30 16:24 1.4M
20260430T12Z_MSC_GDPS_SpecificHumidity_IsbL-0450_LatLon0.15_PT114H.grib2 2026-04-30 16:24 1.6M
20260430T12Z_MSC_GDPS_SpecificHumidity_IsbL-0500_LatLon0.15_PT114H.grib2 2026-04-30 16:24 1.4M
20260430T12Z_MSC_GDPS_SpecificHumidity_IsbL-0550_LatLon0.15_PT114H.grib2 2026-04-30 16:24 1.6M
20260430T12Z_MSC_GDPS_SpecificHumidity_IsbL-0600_LatLon0.15_PT114H.grib2 2026-04-30 16:24 1.7M
20260430T12Z_MSC_GDPS_SpecificHumidity_IsbL-0650_LatLon0.15_PT114H.grib2 2026-04-30 16:24 1.5M
20260430T12Z_MSC_GDPS_SpecificHumidity_IsbL-0700_LatLon0.15_PT114H.grib2 2026-04-30 16:24 1.6M
20260430T12Z_MSC_GDPS_SpecificHumidity_IsbL-0750_LatLon0.15_PT114H.grib2 2026-04-30 16:24 1.7M
20260430T12Z_MSC_GDPS_SpecificHumidity_IsbL-0800_LatLon0.15_PT114H.grib2 2026-04-30 16:24 1.8M
20260430T12Z_MSC_GDPS_SpecificHumidity_IsbL-0850_LatLon0.15_PT114H.grib2 2026-04-30 16:24 1.9M
20260430T12Z_MSC_GDPS_SpecificHumidity_IsbL-0875_LatLon0.15_PT114H.grib2 2026-04-30 16:24 1.9M
20260430T12Z_MSC_GDPS_SpecificHumidity_IsbL-0900_LatLon0.15_PT114H.grib2 2026-04-30 16:24 1.9M
20260430T12Z_MSC_GDPS_SpecificHumidity_IsbL-0925_LatLon0.15_PT114H.grib2 2026-04-30 16:24 1.9M
20260430T12Z_MSC_GDPS_SpecificHumidity_IsbL-0950_LatLon0.15_PT114H.grib2 2026-04-30 16:24 1.5M
20260430T12Z_MSC_GDPS_SpecificHumidity_IsbL-0970_LatLon0.15_PT114H.grib2 2026-04-30 16:24 1.5M
20260430T12Z_MSC_GDPS_SpecificHumidity_IsbL-0985_LatLon0.15_PT114H.grib2 2026-04-30 16:24 1.5M
20260430T12Z_MSC_GDPS_SpecificHumidity_IsbL-1000_LatLon0.15_PT114H.grib2 2026-04-30 16:24 1.5M
20260430T12Z_MSC_GDPS_SpecificHumidity_IsbL-1015_LatLon0.15_PT114H.grib2 2026-04-30 16:24 1.5M
20260430T12Z_MSC_GDPS_SpecificHumidity_Sfc_LatLon0.15_PT114H.grib2 2026-04-30 16:24 674K
20260430T12Z_MSC_GDPS_Thickness_IsbL-0850to0700_LatLon0.15_PT114H.grib2 2026-04-30 16:24 466K
20260430T12Z_MSC_GDPS_Thickness_IsbL-1000to0500_LatLon0.15_PT114H.grib2 2026-04-30 16:24 373K
20260430T12Z_MSC_GDPS_Thickness_IsbL-1000to0850_LatLon0.15_PT114H.grib2 2026-04-30 16:24 491K
20260430T12Z_MSC_GDPS_TotalCloudCover_Sfc_LatLon0.15_PT114H.grib2 2026-04-30 16:24 824K
20260430T12Z_MSC_GDPS_TotalTotalsIndex_Sfc_LatLon0.15_PT114H.grib2 2026-04-30 16:24 6.2M
20260430T12Z_MSC_GDPS_UVIndex-ClearSky_Sfc_LatLon0.15_PT114H.grib2 2026-04-30 16:45 1.1M
20260430T12Z_MSC_GDPS_UVIndex_Sfc_LatLon0.15_PT114H.grib2 2026-04-30 16:45 1.5M
20260430T12Z_MSC_GDPS_UpwardLongwaveRadiationFlux_NTAtm_LatLon0.15_PT114H.grib2 2026-04-30 16:24 825K
20260430T12Z_MSC_GDPS_VerticalVelocity_IsbL-0200_LatLon0.15_PT114H.grib2 2026-04-30 16:24 1.1M
20260430T12Z_MSC_GDPS_VerticalVelocity_IsbL-0250_LatLon0.15_PT114H.grib2 2026-04-30 16:24 1.3M
20260430T12Z_MSC_GDPS_VerticalVelocity_IsbL-0500_LatLon0.15_PT114H.grib2 2026-04-30 16:24 1.0M
20260430T12Z_MSC_GDPS_VerticalVelocity_IsbL-0600_LatLon0.15_PT114H.grib2 2026-04-30 16:24 1.3M
20260430T12Z_MSC_GDPS_VerticalVelocity_IsbL-0700_LatLon0.15_PT114H.grib2 2026-04-30 16:24 1.4M
20260430T12Z_MSC_GDPS_VerticalVelocity_IsbL-0850_LatLon0.15_PT114H.grib2 2026-04-30 16:24 1.3M
20260430T12Z_MSC_GDPS_WindChill_Sfc_LatLon0.15_PT114H.grib2 2026-04-30 16:24 5.3M
20260430T12Z_MSC_GDPS_WindDir_AGL-10m_LatLon0.15_PT114H.grib2 2026-04-30 16:24 1.3M
20260430T12Z_MSC_GDPS_WindDir_AGL-120m_LatLon0.15_PT114H.grib2 2026-04-30 16:24 1.3M
20260430T12Z_MSC_GDPS_WindDir_AGL-40m_LatLon0.15_PT114H.grib2 2026-04-30 16:24 1.4M
20260430T12Z_MSC_GDPS_WindDir_AGL-80m_LatLon0.15_PT114H.grib2 2026-04-30 16:24 1.3M
20260430T12Z_MSC_GDPS_WindDir_IsbL-0001_LatLon0.15_PT114H.grib2 2026-04-30 16:24 675K
20260430T12Z_MSC_GDPS_WindDir_IsbL-0005_LatLon0.15_PT114H.grib2 2026-04-30 16:24 822K
20260430T12Z_MSC_GDPS_WindDir_IsbL-0010_LatLon0.15_PT114H.grib2 2026-04-30 16:24 835K
20260430T12Z_MSC_GDPS_WindDir_IsbL-0020_LatLon0.15_PT114H.grib2 2026-04-30 16:24 936K
20260430T12Z_MSC_GDPS_WindDir_IsbL-0030_LatLon0.15_PT114H.grib2 2026-04-30 16:24 942K
20260430T12Z_MSC_GDPS_WindDir_IsbL-0050_LatLon0.15_PT114H.grib2 2026-04-30 16:24 946K
20260430T12Z_MSC_GDPS_WindDir_IsbL-0100_LatLon0.15_PT114H.grib2 2026-04-30 16:24 1.0M
20260430T12Z_MSC_GDPS_WindDir_IsbL-0150_LatLon0.15_PT114H.grib2 2026-04-30 16:24 1.0M
20260430T12Z_MSC_GDPS_WindDir_IsbL-0175_LatLon0.15_PT114H.grib2 2026-04-30 16:24 1.0M
20260430T12Z_MSC_GDPS_WindDir_IsbL-0200_LatLon0.15_PT114H.grib2 2026-04-30 16:24 1.1M
20260430T12Z_MSC_GDPS_WindDir_IsbL-0225_LatLon0.15_PT114H.grib2 2026-04-30 16:24 1.1M
20260430T12Z_MSC_GDPS_WindDir_IsbL-0250_LatLon0.15_PT114H.grib2 2026-04-30 16:24 1.1M
20260430T12Z_MSC_GDPS_WindDir_IsbL-0275_LatLon0.15_PT114H.grib2 2026-04-30 16:24 1.2M
20260430T12Z_MSC_GDPS_WindDir_IsbL-0300_LatLon0.15_PT114H.grib2 2026-04-30 16:24 1.2M
20260430T12Z_MSC_GDPS_WindDir_IsbL-0350_LatLon0.15_PT114H.grib2 2026-04-30 16:24 1.2M
20260430T12Z_MSC_GDPS_WindDir_IsbL-0400_LatLon0.15_PT114H.grib2 2026-04-30 16:24 1.3M
20260430T12Z_MSC_GDPS_WindDir_IsbL-0450_LatLon0.15_PT114H.grib2 2026-04-30 16:24 1.3M
20260430T12Z_MSC_GDPS_WindDir_IsbL-0500_LatLon0.15_PT114H.grib2 2026-04-30 16:24 1.3M
20260430T12Z_MSC_GDPS_WindDir_IsbL-0550_LatLon0.15_PT114H.grib2 2026-04-30 16:24 1.4M
20260430T12Z_MSC_GDPS_WindDir_IsbL-0600_LatLon0.15_PT114H.grib2 2026-04-30 16:24 1.4M
20260430T12Z_MSC_GDPS_WindDir_IsbL-0650_LatLon0.15_PT114H.grib2 2026-04-30 16:24 1.5M
20260430T12Z_MSC_GDPS_WindDir_IsbL-0700_LatLon0.15_PT114H.grib2 2026-04-30 16:24 1.6M
20260430T12Z_MSC_GDPS_WindDir_IsbL-0750_LatLon0.15_PT114H.grib2 2026-04-30 16:24 1.7M
20260430T12Z_MSC_GDPS_WindDir_IsbL-0800_LatLon0.15_PT114H.grib2 2026-04-30 16:24 1.8M
20260430T12Z_MSC_GDPS_WindDir_IsbL-0850_LatLon0.15_PT114H.grib2 2026-04-30 16:24 1.9M
20260430T12Z_MSC_GDPS_WindDir_IsbL-0875_LatLon0.15_PT114H.grib2 2026-04-30 16:24 1.9M
20260430T12Z_MSC_GDPS_WindDir_IsbL-0900_LatLon0.15_PT114H.grib2 2026-04-30 16:24 1.9M
20260430T12Z_MSC_GDPS_WindDir_IsbL-0925_LatLon0.15_PT114H.grib2 2026-04-30 16:24 1.9M
20260430T12Z_MSC_GDPS_WindDir_IsbL-0950_LatLon0.15_PT114H.grib2 2026-04-30 16:24 1.9M
20260430T12Z_MSC_GDPS_WindDir_IsbL-0970_LatLon0.15_PT114H.grib2 2026-04-30 16:24 2.0M
20260430T12Z_MSC_GDPS_WindDir_IsbL-0985_LatLon0.15_PT114H.grib2 2026-04-30 16:24 2.0M
20260430T12Z_MSC_GDPS_WindDir_IsbL-1000_LatLon0.15_PT114H.grib2 2026-04-30 16:24 2.0M
20260430T12Z_MSC_GDPS_WindDir_IsbL-1015_LatLon0.15_PT114H.grib2 2026-04-30 16:24 2.0M
20260430T12Z_MSC_GDPS_WindGust-Max_AGL-10m_LatLon0.15_PT114H.grib2 2026-04-30 16:24 1.8M
20260430T12Z_MSC_GDPS_WindGust-Min_AGL-10m_LatLon0.15_PT114H.grib2 2026-04-30 16:24 2.1M
20260430T12Z_MSC_GDPS_WindGust_AGL-10m_LatLon0.15_PT114H.grib2 2026-04-30 16:24 1.8M
20260430T12Z_MSC_GDPS_WindSpeed_AGL-10m_LatLon0.15_PT114H.grib2 2026-04-30 16:24 1.1M
20260430T12Z_MSC_GDPS_WindSpeed_AGL-120m_LatLon0.15_PT114H.grib2 2026-04-30 16:24 1.2M
20260430T12Z_MSC_GDPS_WindSpeed_AGL-40m_LatLon0.15_PT114H.grib2 2026-04-30 16:24 1.2M
20260430T12Z_MSC_GDPS_WindSpeed_AGL-80m_LatLon0.15_PT114H.grib2 2026-04-30 16:24 1.2M
20260430T12Z_MSC_GDPS_WindSpeed_IsbL-0001_LatLon0.15_PT114H.grib2 2026-04-30 16:24 648K
20260430T12Z_MSC_GDPS_WindSpeed_IsbL-0005_LatLon0.15_PT114H.grib2 2026-04-30 16:24 689K
20260430T12Z_MSC_GDPS_WindSpeed_IsbL-0010_LatLon0.15_PT114H.grib2 2026-04-30 16:24 624K
20260430T12Z_MSC_GDPS_WindSpeed_IsbL-0020_LatLon0.15_PT114H.grib2 2026-04-30 16:24 857K
20260430T12Z_MSC_GDPS_WindSpeed_IsbL-0030_LatLon0.15_PT114H.grib2 2026-04-30 16:24 863K
20260430T12Z_MSC_GDPS_WindSpeed_IsbL-0050_LatLon0.15_PT114H.grib2 2026-04-30 16:24 1.0M
20260430T12Z_MSC_GDPS_WindSpeed_IsbL-0100_LatLon0.15_PT114H.grib2 2026-04-30 16:24 1.1M
20260430T12Z_MSC_GDPS_WindSpeed_IsbL-0150_LatLon0.15_PT114H.grib2 2026-04-30 16:24 940K
20260430T12Z_MSC_GDPS_WindSpeed_IsbL-0175_LatLon0.15_PT114H.grib2 2026-04-30 16:24 1.0M
20260430T12Z_MSC_GDPS_WindSpeed_IsbL-0200_LatLon0.15_PT114H.grib2 2026-04-30 16:24 1.0M
20260430T12Z_MSC_GDPS_WindSpeed_IsbL-0225_LatLon0.15_PT114H.grib2 2026-04-30 16:24 1.1M
20260430T12Z_MSC_GDPS_WindSpeed_IsbL-0250_LatLon0.15_PT114H.grib2 2026-04-30 16:24 1.1M
20260430T12Z_MSC_GDPS_WindSpeed_IsbL-0275_LatLon0.15_PT114H.grib2 2026-04-30 16:24 1.1M
20260430T12Z_MSC_GDPS_WindSpeed_IsbL-0300_LatLon0.15_PT114H.grib2 2026-04-30 16:24 1.1M
20260430T12Z_MSC_GDPS_WindSpeed_IsbL-0350_LatLon0.15_PT114H.grib2 2026-04-30 16:24 1.1M
20260430T12Z_MSC_GDPS_WindSpeed_IsbL-0400_LatLon0.15_PT114H.grib2 2026-04-30 16:24 1.1M
20260430T12Z_MSC_GDPS_WindSpeed_IsbL-0450_LatLon0.15_PT114H.grib2 2026-04-30 16:24 1.1M
20260430T12Z_MSC_GDPS_WindSpeed_IsbL-0500_LatLon0.15_PT114H.grib2 2026-04-30 16:24 1.1M
20260430T12Z_MSC_GDPS_WindSpeed_IsbL-0550_LatLon0.15_PT114H.grib2 2026-04-30 16:24 1.1M
20260430T12Z_MSC_GDPS_WindSpeed_IsbL-0600_LatLon0.15_PT114H.grib2 2026-04-30 16:24 1.1M
20260430T12Z_MSC_GDPS_WindSpeed_IsbL-0650_LatLon0.15_PT114H.grib2 2026-04-30 16:24 1.4M
20260430T12Z_MSC_GDPS_WindSpeed_IsbL-0700_LatLon0.15_PT114H.grib2 2026-04-30 16:24 1.5M
20260430T12Z_MSC_GDPS_WindSpeed_IsbL-0750_LatLon0.15_PT114H.grib2 2026-04-30 16:24 1.5M
20260430T12Z_MSC_GDPS_WindSpeed_IsbL-0800_LatLon0.15_PT114H.grib2 2026-04-30 16:24 1.6M
20260430T12Z_MSC_GDPS_WindSpeed_IsbL-0850_LatLon0.15_PT114H.grib2 2026-04-30 16:24 1.4M
20260430T12Z_MSC_GDPS_WindSpeed_IsbL-0875_LatLon0.15_PT114H.grib2 2026-04-30 16:24 1.5M
20260430T12Z_MSC_GDPS_WindSpeed_IsbL-0900_LatLon0.15_PT114H.grib2 2026-04-30 16:24 1.5M
20260430T12Z_MSC_GDPS_WindSpeed_IsbL-0925_LatLon0.15_PT114H.grib2 2026-04-30 16:24 1.5M
20260430T12Z_MSC_GDPS_WindSpeed_IsbL-0950_LatLon0.15_PT114H.grib2 2026-04-30 16:24 1.8M
20260430T12Z_MSC_GDPS_WindSpeed_IsbL-0970_LatLon0.15_PT114H.grib2 2026-04-30 16:24 1.8M
20260430T12Z_MSC_GDPS_WindSpeed_IsbL-0985_LatLon0.15_PT114H.grib2 2026-04-30 16:24 1.8M
20260430T12Z_MSC_GDPS_WindSpeed_IsbL-1000_LatLon0.15_PT114H.grib2 2026-04-30 16:24 1.8M
20260430T12Z_MSC_GDPS_WindSpeed_IsbL-1015_LatLon0.15_PT114H.grib2 2026-04-30 16:24 1.7M
20260430T12Z_MSC_GDPS_WindU_AGL-10m_LatLon0.15_PT114H.grib2 2026-04-30 16:24 1.3M
20260430T12Z_MSC_GDPS_WindU_AGL-120m_LatLon0.15_PT114H.grib2 2026-04-30 16:24 1.0M
20260430T12Z_MSC_GDPS_WindU_AGL-40m_LatLon0.15_PT114H.grib2 2026-04-30 16:24 1.0M
20260430T12Z_MSC_GDPS_WindU_AGL-80m_LatLon0.15_PT114H.grib2 2026-04-30 16:24 1.0M
20260430T12Z_MSC_GDPS_WindU_IsbL-0001_LatLon0.15_PT114H.grib2 2026-04-30 16:24 502K
20260430T12Z_MSC_GDPS_WindU_IsbL-0005_LatLon0.15_PT114H.grib2 2026-04-30 16:24 685K
20260430T12Z_MSC_GDPS_WindU_IsbL-0010_LatLon0.15_PT114H.grib2 2026-04-30 16:24 700K
20260430T12Z_MSC_GDPS_WindU_IsbL-0020_LatLon0.15_PT114H.grib2 2026-04-30 16:24 733K
20260430T12Z_MSC_GDPS_WindU_IsbL-0030_LatLon0.15_PT114H.grib2 2026-04-30 16:24 740K
20260430T12Z_MSC_GDPS_WindU_IsbL-0050_LatLon0.15_PT114H.grib2 2026-04-30 16:24 696K
20260430T12Z_MSC_GDPS_WindU_IsbL-0100_LatLon0.15_PT114H.grib2 2026-04-30 16:24 921K
20260430T12Z_MSC_GDPS_WindU_IsbL-0150_LatLon0.15_PT114H.grib2 2026-04-30 16:24 1.0M
20260430T12Z_MSC_GDPS_WindU_IsbL-0175_LatLon0.15_PT114H.grib2 2026-04-30 16:24 1.0M
20260430T12Z_MSC_GDPS_WindU_IsbL-0200_LatLon0.15_PT114H.grib2 2026-04-30 16:24 1.0M
20260430T12Z_MSC_GDPS_WindU_IsbL-0225_LatLon0.15_PT114H.grib2 2026-04-30 16:24 842K
20260430T12Z_MSC_GDPS_WindU_IsbL-0250_LatLon0.15_PT114H.grib2 2026-04-30 16:24 844K
20260430T12Z_MSC_GDPS_WindU_IsbL-0275_LatLon0.15_PT114H.grib2 2026-04-30 16:24 870K
20260430T12Z_MSC_GDPS_WindU_IsbL-0300_LatLon0.15_PT114H.grib2 2026-04-30 16:24 863K
20260430T12Z_MSC_GDPS_WindU_IsbL-0350_LatLon0.15_PT114H.grib2 2026-04-30 16:24 881K
20260430T12Z_MSC_GDPS_WindU_IsbL-0400_LatLon0.15_PT114H.grib2 2026-04-30 16:24 884K
20260430T12Z_MSC_GDPS_WindU_IsbL-0450_LatLon0.15_PT114H.grib2 2026-04-30 16:24 884K
20260430T12Z_MSC_GDPS_WindU_IsbL-0500_LatLon0.15_PT114H.grib2 2026-04-30 16:24 1.1M
20260430T12Z_MSC_GDPS_WindU_IsbL-0550_LatLon0.15_PT114H.grib2 2026-04-30 16:24 1.1M
20260430T12Z_MSC_GDPS_WindU_IsbL-0600_LatLon0.15_PT114H.grib2 2026-04-30 16:24 1.1M
20260430T12Z_MSC_GDPS_WindU_IsbL-0650_LatLon0.15_PT114H.grib2 2026-04-30 16:24 1.2M
20260430T12Z_MSC_GDPS_WindU_IsbL-0700_LatLon0.15_PT114H.grib2 2026-04-30 16:24 1.2M
20260430T12Z_MSC_GDPS_WindU_IsbL-0750_LatLon0.15_PT114H.grib2 2026-04-30 16:24 1.3M
20260430T12Z_MSC_GDPS_WindU_IsbL-0800_LatLon0.15_PT114H.grib2 2026-04-30 16:24 1.3M
20260430T12Z_MSC_GDPS_WindU_IsbL-0850_LatLon0.15_PT114H.grib2 2026-04-30 16:24 1.4M
20260430T12Z_MSC_GDPS_WindU_IsbL-0875_LatLon0.15_PT114H.grib2 2026-04-30 16:24 1.5M
20260430T12Z_MSC_GDPS_WindU_IsbL-0900_LatLon0.15_PT114H.grib2 2026-04-30 16:24 1.5M
20260430T12Z_MSC_GDPS_WindU_IsbL-0925_LatLon0.15_PT114H.grib2 2026-04-30 16:24 1.5M
20260430T12Z_MSC_GDPS_WindU_IsbL-0950_LatLon0.15_PT114H.grib2 2026-04-30 16:24 1.4M
20260430T12Z_MSC_GDPS_WindU_IsbL-0970_LatLon0.15_PT114H.grib2 2026-04-30 16:24 1.4M
20260430T12Z_MSC_GDPS_WindU_IsbL-0985_LatLon0.15_PT114H.grib2 2026-04-30 16:24 1.4M
20260430T12Z_MSC_GDPS_WindU_IsbL-1000_LatLon0.15_PT114H.grib2 2026-04-30 16:24 1.4M
20260430T12Z_MSC_GDPS_WindU_IsbL-1015_LatLon0.15_PT114H.grib2 2026-04-30 16:24 1.3M
20260430T12Z_MSC_GDPS_WindV_AGL-10m_LatLon0.15_PT114H.grib2 2026-04-30 16:24 1.6M
20260430T12Z_MSC_GDPS_WindV_AGL-120m_LatLon0.15_PT114H.grib2 2026-04-30 16:24 963K
20260430T12Z_MSC_GDPS_WindV_AGL-40m_LatLon0.15_PT114H.grib2 2026-04-30 16:24 1.2M
20260430T12Z_MSC_GDPS_WindV_AGL-80m_LatLon0.15_PT114H.grib2 2026-04-30 16:24 963K
20260430T12Z_MSC_GDPS_WindV_IsbL-0001_LatLon0.15_PT114H.grib2 2026-04-30 16:24 780K
20260430T12Z_MSC_GDPS_WindV_IsbL-0005_LatLon0.15_PT114H.grib2 2026-04-30 16:24 852K
20260430T12Z_MSC_GDPS_WindV_IsbL-0010_LatLon0.15_PT114H.grib2 2026-04-30 16:24 807K
20260430T12Z_MSC_GDPS_WindV_IsbL-0020_LatLon0.15_PT114H.grib2 2026-04-30 16:24 936K
20260430T12Z_MSC_GDPS_WindV_IsbL-0030_LatLon0.15_PT114H.grib2 2026-04-30 16:24 937K
20260430T12Z_MSC_GDPS_WindV_IsbL-0050_LatLon0.15_PT114H.grib2 2026-04-30 16:24 901K
20260430T12Z_MSC_GDPS_WindV_IsbL-0100_LatLon0.15_PT114H.grib2 2026-04-30 16:24 1.1M
20260430T12Z_MSC_GDPS_WindV_IsbL-0150_LatLon0.15_PT114H.grib2 2026-04-30 16:24 1.0M
20260430T12Z_MSC_GDPS_WindV_IsbL-0175_LatLon0.15_PT114H.grib2 2026-04-30 16:24 1.0M
20260430T12Z_MSC_GDPS_WindV_IsbL-0200_LatLon0.15_PT114H.grib2 2026-04-30 16:24 829K
20260430T12Z_MSC_GDPS_WindV_IsbL-0225_LatLon0.15_PT114H.grib2 2026-04-30 16:24 898K
20260430T12Z_MSC_GDPS_WindV_IsbL-0250_LatLon0.15_PT114H.grib2 2026-04-30 16:24 899K
20260430T12Z_MSC_GDPS_WindV_IsbL-0275_LatLon0.15_PT114H.grib2 2026-04-30 16:24 924K
20260430T12Z_MSC_GDPS_WindV_IsbL-0300_LatLon0.15_PT114H.grib2 2026-04-30 16:24 917K
20260430T12Z_MSC_GDPS_WindV_IsbL-0350_LatLon0.15_PT114H.grib2 2026-04-30 16:24 930K
20260430T12Z_MSC_GDPS_WindV_IsbL-0400_LatLon0.15_PT114H.grib2 2026-04-30 16:24 871K
20260430T12Z_MSC_GDPS_WindV_IsbL-0450_LatLon0.15_PT114H.grib2 2026-04-30 16:24 872K
20260430T12Z_MSC_GDPS_WindV_IsbL-0500_LatLon0.15_PT114H.grib2 2026-04-30 16:24 1.1M
20260430T12Z_MSC_GDPS_WindV_IsbL-0550_LatLon0.15_PT114H.grib2 2026-04-30 16:24 1.1M
20260430T12Z_MSC_GDPS_WindV_IsbL-0600_LatLon0.15_PT114H.grib2 2026-04-30 16:24 1.1M
20260430T12Z_MSC_GDPS_WindV_IsbL-0650_LatLon0.15_PT114H.grib2 2026-04-30 16:24 1.2M
20260430T12Z_MSC_GDPS_WindV_IsbL-0700_LatLon0.15_PT114H.grib2 2026-04-30 16:24 1.2M
20260430T12Z_MSC_GDPS_WindV_IsbL-0750_LatLon0.15_PT114H.grib2 2026-04-30 16:24 1.2M
20260430T12Z_MSC_GDPS_WindV_IsbL-0800_LatLon0.15_PT114H.grib2 2026-04-30 16:24 1.3M
20260430T12Z_MSC_GDPS_WindV_IsbL-0850_LatLon0.15_PT114H.grib2 2026-04-30 16:24 1.4M
20260430T12Z_MSC_GDPS_WindV_IsbL-0875_LatLon0.15_PT114H.grib2 2026-04-30 16:24 1.4M
20260430T12Z_MSC_GDPS_WindV_IsbL-0900_LatLon0.15_PT114H.grib2 2026-04-30 16:24 1.4M
20260430T12Z_MSC_GDPS_WindV_IsbL-0925_LatLon0.15_PT114H.grib2 2026-04-30 16:24 1.4M
20260430T12Z_MSC_GDPS_WindV_IsbL-0950_LatLon0.15_PT114H.grib2 2026-04-30 16:24 1.4M
20260430T12Z_MSC_GDPS_WindV_IsbL-0970_LatLon0.15_PT114H.grib2 2026-04-30 16:24 1.4M
20260430T12Z_MSC_GDPS_WindV_IsbL-0985_LatLon0.15_PT114H.grib2 2026-04-30 16:24 1.4M
20260430T12Z_MSC_GDPS_WindV_IsbL-1000_LatLon0.15_PT114H.grib2 2026-04-30 16:24 1.4M
20260430T12Z_MSC_GDPS_WindV_IsbL-1015_LatLon0.15_PT114H.grib2 2026-04-30 16:24 1.6M